Die Wichtigste » das Wetter in Italien » Friaul-Julisch Venetien » Grado » Meteograms hourly weather

Grado, Meteogramm

Grado: stundensatz wetter
Sonntag, 31 Mai
Zeit Der Niederschlag Die Temperatur Fühlt Der Druck Die Feuchtigkeit Der Wind
00:00 0.03 mm +13.9° +14.7° 762 mmHg 88% 2 m/S, O
01:00 0.04 mm +14.2° +15.1° 762 mmHg 87% 3 m/S, O
02:00 0.04 mm +14.5° +15.4° 762 mmHg 86% 3 m/S, O
03:00 0.04 mm +14.8° +15.7° 762 mmHg 85% 3 m/S, O
04:00 0.03 mm +15.9° +16.9° 763 mmHg 83% 3 m/S, O
05:00 0.03 mm +17° +18° 763 mmHg 81% 2 m/S, NO
06:00 0.03 mm +18.1° +19.2° 763 mmHg 79% 2 m/S, NO
07:00 0.02 mm +19.8° +20.7° 763 mmHg 72% 2 m/S, O
08:00 0.02 mm +21.4° +22.2° 763 mmHg 65% 2 m/S, O
09:00 0.02 mm +23° +23.6° 764 mmHg 58% 1 m/S, O
10:00 0.17 mm +23.7° +24.5° 763 mmHg 58% 1 m/S, SO
11:00 0.17 mm +24.4° +25.3° 763 mmHg 58% 2 m/S, S
12:00 0.17 mm +25.2° +26.2° 763 mmHg 58% 2 m/S, S
13:00 0.08 mm +25.1° +25.9° 763 mmHg 56% 2 m/S, S
14:00 0.08 mm +24.9° +25.6° 763 mmHg 54% 2 m/S, S
15:00 0.08 mm +24.8° +25.3° 762 mmHg 52% 2 m/S, S
16:00 0.01 mm +23.2° +24° 762 mmHg 60% 2 m/S, S
17:00 0.01 mm +21.7° +22.7° 762 mmHg 68% 2 m/S, S
18:00 0.01 mm +20.1° +21.4° 762 mmHg 76% 1 m/S, S
19:00 0 mm +18° +19° 763 mmHg 79% 1 m/S, S
20:00 0 mm +15.8° +16.7° 763 mmHg 83% 1 m/S, S
21:00 0 mm +13.7° +14.4° 763 mmHg 87% 1 m/S, SO
22:00 0 mm +13.5° +14.2° 763 mmHg 86% 1 m/S, O
23:00 0 mm +13.3° +13.9° 763 mmHg 86% 1 m/S, O
Montag, 01 Juni
Zeit Der Niederschlag Die Temperatur Fühlt Der Druck Die Feuchtigkeit Der Wind
00:00 0 mm +13° +13.7° 763 mmHg 85% 1 m/S, O
01:00 0 mm +12.9° +13.5° 763 mmHg 85% 1 m/S, O
02:00 0 mm +12.8° +13.4° 763 mmHg 85% 1 m/S, O
03:00 0 mm +12.6° +13.2° 763 mmHg 85% 1 m/S, O
04:00 0 mm +15.3° +15.9° 763 mmHg 77% 1 m/S, O
05:00 0 mm +18° +18.6° 763 mmHg 70% 1 m/S, O
06:00 0 mm +20.7° +21.2° 763 mmHg 62% 1 m/S, O
07:00 0 mm +22.2° +22.6° 763 mmHg 57% 1 m/S, O
08:00 0 mm +23.7° +24° 764 mmHg 51% 1 m/S, S
09:00 0 mm +25.2° +25.3° 764 mmHg 46% 1 m/S, S
10:00 0 mm +25.7° +25.8° 763 mmHg 45% 2 m/S, SW
11:00 0 mm +26.1° +26.2° 763 mmHg 44% 2 m/S, SW
12:00 0 mm +26.6° +26.7° 763 mmHg 43% 3 m/S, SW
13:00 0 mm +26.4° +26.5° 763 mmHg 44% 3 m/S, SW
14:00 0 mm +26.1° +26.3° 762 mmHg 46% 3 m/S, SW
15:00 0 mm +25.8° +26.1° 762 mmHg 47% 3 m/S, SW
16:00 0 mm +24.1° +24.8° 762 mmHg 56% 2 m/S, SW
17:00 0 mm +22.4° +23.4° 762 mmHg 65% 2 m/S, SW
18:00 0 mm +20.7° +22° 762 mmHg 75% 1 m/S, S
19:00 0 mm +18.5° +19.6° 763 mmHg 78% 1 m/S, S
20:00 0 mm +16.4° +17.2° 763 mmHg 81% 1 m/S, S
21:00 0 mm +14.2° +14.9° 763 mmHg 85% 1 m/S, SO
22:00 0 mm +14° +14.7° 763 mmHg 84% 1 m/S, O
23:00 0 mm +13.7° +14.4° 763 mmHg 83% 1 m/S, NO

Auch

Meteograms hourly weather Die Wetterkarte Wetterübersicht
Meteograms hourly weather Die Wetterkarte Wetterübersicht

Market


Wetter widget


 
das Wetter in Österreich:
Über das Projekt
© meteoprog.at 2003-2015.
Meteoprog.ua - погода в Украине 0.0716
sitemap